Wetbulb
64.39 66.57 74.08 73.94 72.92 71.65 70.39 69.52 69.08 68.68 68.24 68.06 67.58 67.00 66.57 66.07 65.75 65.13 64.87 64.47 63.99 64.17 64.28 64.40 64.30 64.14 64.97 65.42 65.88 66.73 67.19 68.52 69.43 70.67 73.06 73.64 74.03 74.48 75.32 75.55 75.46 74.97 76.19
67.12 67.44 74.21 73.91 73.20 71.87 71.67 71.03 70.61 70.17 69.73 68.32 67.92 67.53 66.97 66.48 66.20 65.69 65.30 65.14 65.24 65.38 65.48 65.72 65.64 65.36 65.29 65.80 65.89 66.39 66.78 67.27 68.47 69.20 71.62 73.09 73.79 74.30 74.67 75.10 75.32 75.25 75.48
66.31 68.23 73.10 74.06 73.43 72.57 72.07 71.82 71.31 70.75 70.51 69.21 68.45 68.02 67.83 67.66 67.31 67.18 67.01 66.88 67.00 67.04 66.99 67.02 66.94 66.97 66.47 66.70 66.25 66.94 66.91 67.19 67.64 68.59 69.95 73.92 74.41 74.11 74.74 74.82 75.47 75.26 75.41
67.18 69.57 71.06 74.06 73.49 72.90 72.71 72.34 71.85 71.41 70.78 70.17 69.25 68.71 68.43 68.26 68.28 68.25 68.44 68.30 68.03 68.15 68.24 68.30 68.27 68.32 67.92 67.69 67.03 66.48 66.89 67.29 67.35 68.43 69.06 72.52 73.98 73.25 74.16 74.80 75.38 75.46 75.18
67.72 70.42 72.21 74.16 73.71 73.21 73.01 72.94 72.65 72.03 71.43 70.43 69.18 68.70 68.30 68.45 68.70 69.44 69.17 68.93 68.50 68.36 68.10 68.93 68.64 68.23 68.34 68.38 68.26 67.53 66.84 66.70 67.64 68.45 68.77 71.09 73.87 73.08 73.43 74.39 74.45 74.78 74.88
67.34 69.90 71.80 73.84 73.76 73.49 73.29 73.22 72.92 72.35 71.75 70.77 69.54 69.39 69.26 69.40 70.45 70.09 69.77 69.63 69.48 69.26 69.05 69.15 69.21 69.91 69.15 69.08 68.98 68.55 67.73 66.92 66.89 68.00 69.26 69.40 72.16 72.70 73.02 73.50 74.11 74.30 73.74
67.39 68.85 70.97 73.71 74.03 73.81 73.84 73.59 73.09 72.52 72.15 71.78 70.70 70.27 70.27 70.93 70.47 70.30 69.90 69.65 69.39 69.53 69.37 69.23 69.08 69.87 70.01 70.06 69.38 69.10 68.58 67.52 67.01 67.75 68.75 69.40 70.94 71.17 72.78 73.36 74.16 73.51 73.48
68.13 68.66 70.93 73.24 73.93 73.76 73.69 73.51 73.11 72.79 72.62 72.47 71.83 71.73 71.53 71.41 70.62 69.98 69.65 68.90 68.64 68.81 68.98 69.01 68.49 69.58 68.85 68.97 68.77 69.10 68.59 67.80 67.96 67.78 68.84 69.40 70.00 70.59 72.04 72.84 73.99 73.09 72.81
69.20 68.84 70.81 72.14 73.57 73.85 73.41 73.14 73.33 72.97 72.85 72.80 72.21 71.92 72.05 70.62 70.52 69.20 67.67 67.20 67.16 67.36 68.03 68.28 68.33 68.75 68.49 68.24 68.39 68.39 68.64 68.16 68.28 68.40 67.58 69.00 69.27 70.53 72.00 72.62 73.26 72.84 72.71
68.00 69.24 69.90 71.81 72.52 72.38 72.41 73.58 73.54 73.34 73.08 72.81 72.59 72.17 71.83 69.89 68.88 66.78 67.33 66.60 66.27 66.32 66.72 67.30 67.42 67.43 68.27 68.35 67.82 67.82 68.42 68.53 68.47 68.33 68.25 68.17 69.19 69.91 71.61 72.52 72.89 72.89 72.79
66.72 68.02 69.32 69.98 71.47 71.92 71.70 72.01 73.38 72.96 72.66 72.42 71.66 71.13 70.40 68.51 67.38 67.16 66.47 66.14 65.60 65.55 65.38 65.88 66.46 66.87 66.92 67.37 67.50 67.62 68.06 67.94 68.16 67.87 67.89 68.12 69.04 69.57 70.79 72.10 72.72 73.14 72.79
65.88 66.97 68.14 69.29 70.67 71.27 70.75 72.14 72.38 71.71 71.11 70.97 70.36 69.46 68.88 67.96 67.65 66.47 65.82 64.94 64.78 65.05 65.31 65.81 66.34 67.03 67.11 67.70 66.81 67.72 67.31 67.35 67.90 67.47 66.80 68.03 68.82 69.50 69.97 71.66 72.40 72.57 72.99
65.94 67.06 67.76 69.18 70.36 70.68 70.23 70.78 70.51 70.26 69.50 69.49 69.46 68.95 67.83 66.97 67.08 66.60 65.75 65.22 65.54 64.59 64.39 65.00 65.40 65.56 65.56 66.41 67.00 66.96 66.80 67.37 67.23 67.16 66.13 67.73 68.45 69.23 69.62 71.21 71.88 72.50 72.76
64.72 66.18 67.60 68.58 69.10 70.09 69.80 68.85 68.15 67.40 67.35 66.51 66.95 67.72 66.97 66.20 66.08 65.57 64.66 64.62 64.38 64.12 64.56 65.24 65.02 65.50 65.79 66.26 66.96 66.68 66.76 67.13 66.99 67.01 65.68 67.04 67.93 68.86 69.17 70.93 71.28 72.05 72.31
63.44 64.80 65.69 67.84 68.76 68.79 67.77 66.81 65.92 65.41 65.53 66.31 66.43 66.64 66.08 65.43 65.76 65.84 64.86 64.46 64.31 64.36 64.32 64.33 64.40 64.57 64.89 66.39 66.59 66.43 66.26 66.73 67.08 66.71 65.14 66.58 67.31 68.04 68.94 70.62 71.33 71.80 71.92
63.41 63.01 64.77 66.48 67.89 66.94 66.16 66.08 65.50 65.98 65.85 66.04 65.78 66.01 66.36 65.93 65.65 64.92 64.55 64.26 64.50 64.59 64.33 64.14 63.54 63.95 64.61 65.82 65.86 66.19 66.24 66.57 66.46 65.74 64.30 66.44 66.71 67.15 68.17 70.35 71.36 71.53 72.25
63.01 62.16 63.39 65.55 66.02 65.69 65.40 65.67 65.91 65.36 65.60 65.51 65.84 66.67 65.88 66.00 65.65 65.56 64.77 64.80 65.12 64.26 63.40 64.08 63.96 64.30 64.23 65.14 65.14 65.53 65.97 66.00 65.50 64.89 65.48 66.81 67.88 67.00 68.17 69.95 70.94 71.48 72.11
61.65 60.99 62.96 63.48 64.29 65.05 65.36 65.79 65.16 65.46 65.50 65.61 65.76 66.10 66.35 66.43 66.43 66.06 65.18 64.85 65.25 64.28 63.83 63.36 63.40 62.69 63.49 63.82 64.55 65.05 65.11 65.24 65.28 65.24 65.87 66.41 67.91 68.93 70.06 69.81 70.38 71.18 71.80
60.73 61.85 62.20 63.31 63.46 64.61 65.69 65.03 65.33 65.95 65.16 65.64 65.98 66.05 66.47 66.22 66.27 66.03 64.79 64.76 65.05 63.78 63.16 63.51 62.88 62.88 62.93 63.52 63.89 64.29 64.52 64.77 65.17 65.40 66.17 68.01 69.00 69.81 70.80 70.13 70.29 70.20 70.74
61.11 62.93 63.67 63.40 64.88 65.36 64.73 64.38 64.70 64.97 64.93 65.75 65.93 66.12 66.74 66.57 66.38 66.13 63.01 63.37 63.77 63.12 62.73 62.91 62.93 62.86 63.12 63.34 63.28 63.09 64.28 65.30 65.58 66.46 66.99 68.32 68.47 70.11 70.75 70.56 71.21 69.20 69.00
61.16 61.99 63.23 63.23 64.76 64.09 62.94 62.77 63.60 63.02 65.12 65.40 66.17 66.48 66.35 66.79 66.18 64.38 62.78 63.18 62.75 61.79 62.53 63.06 62.74 62.43 62.71 63.56 62.29 59.88 62.75 65.11 65.80 66.92 68.42 68.00 66.20 68.02 69.30 70.39 69.09 64.88 69.09
60.86 61.84 62.81 63.95 64.00 64.21 64.00 64.30 65.72 65.83 66.20 65.98 66.15 66.33 66.31 66.37 66.20 64.18 63.94 60.51 61.66 61.97 62.76 62.80 62.28 61.40 62.63 63.30 61.28 61.58 57.90 61.20 64.42 65.92 66.33 66.15 66.24 68.41 67.93 69.98 69.20 68.84 69.05
60.55 61.62 63.09 63.79 63.98 64.33 64.78 64.98 65.27 65.65 65.30 64.64 65.69 65.96 66.22 65.27 65.41 63.68 63.19 62.81 63.06 63.45 63.15 62.65 62.03 62.17 60.81 62.31 63.35 61.82 56.82 55.68 60.62 65.12 65.60 65.78 66.46 66.98 68.11 67.63 68.57 68.04 68.52
60.65 62.88 63.36 63.73 64.02 64.26 65.21 64.64 65.13 64.16 62.84 64.73 65.10 65.46 65.59 64.06 65.12 63.28 64.52 63.56 63.95 63.66 63.15 62.52 62.62 62.49 63.19 60.65 61.58 64.68 64.91 63.47 59.48 58.71 63.60 64.67 65.55 64.21 66.05 67.36 67.54 66.80 66.73
61.62 62.04 62.93 63.80 63.99 64.67 64.96 65.59 64.50 63.54 64.22 65.17 64.83 63.83 64.12 65.61 64.86 63.63 64.80 64.07 64.17 63.64 63.67 63.10 62.76 62.91 63.23 63.96 63.61 63.65 64.09 63.47 63.83 61.58 58.00 60.04 62.99 64.85 64.74 64.55 64.87 65.46 65.37
61.87 61.97 62.76 63.23 63.76 64.60 64.49 65.03 64.38 63.35 62.85 63.40 63.05 63.53 64.03 64.51 64.40 64.74 64.11 64.63 64.55 64.16 63.70 63.13 63.51 63.77 63.98 64.87 64.98 64.60 63.44 61.65 61.58 62.47 59.01 59.18 59.56 61.62 64.06 65.04 65.03 64.55 64.56
MSLP
1010.59 1010.99 1011.85 1012.37 1012.93 1013.36 1013.66 1013.85 1014.13 1014.36 1014.61 1014.85 1015.01 1015.04 1015.19 1015.40 1015.55 1015.65 1015.71 1015.81 1015.86 1015.92 1016.01 1016.08 1016.14 1016.08 1016.20 1016.05 1015.90 1016.00 1016.12 1016.13 1015.99 1015.94 1015.89 1015.97 1016.01 1016.06 1016.04 1016.11 1016.18 1015.83 1016.47
1009.57 1010.69 1011.53 1012.09 1012.51 1012.97 1013.25 1013.53 1013.81 1014.06 1014.39 1014.66 1014.82 1014.96 1015.17 1015.32 1015.43 1015.60 1015.70 1015.74 1015.79 1015.76 1015.86 1015.80 1015.79 1015.93 1015.92 1016.10 1015.79 1015.94 1015.97 1016.08 1016.01 1016.01 1015.95 1015.74 1015.80 1015.90 1015.96 1016.00 1016.10 1015.87 1016.32
1009.44 1010.35 1011.18 1011.72 1012.11 1012.47 1012.90 1013.28 1013.65 1013.94 1014.17 1014.37 1014.61 1014.79 1014.98 1015.13 1015.38 1015.54 1015.58 1015.67 1015.70 1015.67 1015.75 1015.80 1015.78 1015.63 1015.62 1016.03 1015.79 1015.83 1015.74 1015.97 1015.98 1015.89 1015.88 1015.41 1015.30 1015.67 1015.74 1015.82 1015.94 1016.12 1016.40
1009.23 1009.99 1010.53 1011.35 1011.72 1012.12 1012.58 1012.97 1013.32 1013.64 1013.97 1014.17 1014.37 1014.54 1014.83 1014.91 1015.00 1015.14 1015.19 1015.29 1015.32 1015.48 1015.47 1015.42 1015.54 1015.70 1015.42 1015.87 1015.72 1015.81 1015.72 1015.79 1015.73 1015.71 1015.43 1015.45 1015.28 1015.49 1015.55 1015.61 1015.84 1015.97 1016.37
1009.34 1009.71 1010.17 1010.82 1011.41 1011.82 1012.20 1012.51 1012.99 1013.31 1013.62 1013.87 1014.07 1014.29 1014.51 1014.64 1014.72 1014.82 1014.95 1014.97 1015.02 1015.00 1015.07 1015.18 1015.02 1015.28 1015.30 1015.34 1015.51 1015.62 1015.59 1015.60 1015.67 1015.52 1015.34 1015.49 1015.42 1015.25 1015.48 1015.51 1015.69 1016.06 1016.33
1008.97 1009.42 1009.81 1010.27 1010.87 1011.45 1011.91 1012.28 1012.60 1012.95 1013.33 1013.63 1013.88 1014.11 1014.30 1014.34 1014.48 1014.62 1014.69 1014.72 1014.72 1014.67 1014.77 1014.84 1014.58 1014.88 1015.04 1015.06 1015.20 1015.30 1015.33 1015.49 1015.55 1015.02 1015.28 1015.29 1015.48 1015.32 1015.53 1015.47 1015.61 1015.96 1016.36
1008.64 1009.04 1009.49 1010.06 1010.54 1011.13 1011.67 1012.15 1012.50 1012.82 1013.22 1013.53 1013.72 1013.92 1014.10 1014.18 1014.22 1014.34 1014.38 1014.45 1014.51 1014.37 1014.37 1014.46 1014.48 1014.66 1014.78 1014.82 1014.79 1014.83 1015.23 1015.32 1015.25 1014.80 1015.09 1015.15 1015.15 1015.46 1015.47 1015.33 1015.45 1015.95 1016.39
1008.29 1008.71 1009.25 1009.94 1010.27 1010.75 1011.33 1011.88 1012.37 1012.68 1013.02 1013.36 1013.50 1013.69 1013.75 1013.90 1014.02 1014.07 1014.16 1014.18 1014.19 1014.00 1014.01 1014.15 1014.39 1014.36 1014.57 1014.71 1014.74 1014.91 1015.10 1015.18 1014.87 1014.65 1014.91 1014.96 1014.99 1015.35 1015.33 1015.18 1015.28 1015.79 1016.32
1008.34 1008.76 1009.04 1009.49 1010.09 1010.60 1011.05 1011.49 1011.96 1012.40 1012.79 1013.08 1013.25 1013.47 1013.62 1013.72 1013.84 1013.94 1014.00 1013.95 1013.97 1013.85 1013.78 1013.88 1014.10 1014.23 1014.39 1014.50 1014.56 1014.56 1014.69 1014.88 1014.43 1014.39 1014.76 1014.71 1014.94 1015.15 1015.17 1015.03 1015.17 1015.55 1016.05
1008.33 1008.41 1008.80 1009.18 1009.70 1010.24 1010.73 1011.35 1011.69 1012.02 1012.41 1012.71 1013.01 1013.32 1013.38 1013.53 1013.69 1013.81 1013.85 1013.80 1013.84 1013.83 1013.79 1013.75 1013.78 1013.86 1013.96 1014.05 1014.22 1014.26 1014.41 1014.54 1014.29 1014.34 1014.50 1014.24 1014.87 1015.01 1014.86 1014.84 1014.93 1015.27 1015.80
1008.00 1008.20 1008.57 1009.05 1009.15 1009.61 1010.33 1010.92 1011.54 1011.83 1012.13 1012.44 1012.71 1013.01 1013.18 1013.12 1013.30 1013.49 1013.61 1013.72 1013.70 1013.71 1013.66 1013.62 1013.58 1013.57 1013.64 1013.68 1013.80 1013.95 1014.06 1013.93 1013.89 1014.04 1013.87 1014.10 1014.78 1014.58 1014.63 1014.62 1014.66 1014.94 1015.47
1007.24 1007.36 1008.00 1008.63 1009.26 1009.74 1010.18 1010.79 1011.07 1011.41 1011.69 1011.98 1012.29 1012.61 1012.70 1012.97 1013.24 1013.47 1013.59 1013.64 1013.61 1013.56 1013.44 1013.30 1013.21 1013.20 1013.27 1012.74 1012.79 1013.43 1013.40 1013.34 1013.39 1013.50 1013.66 1014.10 1014.56 1014.46 1014.42 1014.40 1014.32 1014.70 1015.07
1006.38 1007.28 1007.64 1008.46 1009.08 1009.65 1009.96 1010.49 1010.97 1011.24 1011.58 1011.95 1012.23 1012.49 1012.56 1012.84 1013.00 1013.12 1013.12 1013.11 1013.14 1013.25 1013.12 1012.98 1012.88 1012.69 1012.54 1012.45 1012.30 1012.50 1012.57 1012.87 1013.02 1013.38 1013.67 1014.36 1014.31 1014.09 1014.22 1014.14 1014.14 1014.36 1014.81
1005.88 1006.81 1007.63 1007.83 1008.43 1009.18 1009.87 1010.14 1010.59 1011.01 1011.39 1011.58 1011.82 1012.23 1012.40 1012.58 1012.68 1012.83 1012.82 1012.84 1013.05 1012.98 1012.89 1012.89 1012.60 1012.63 1012.57 1012.39 1012.30 1012.37 1012.59 1012.79 1012.85 1013.28 1013.58 1014.02 1013.91 1013.95 1013.87 1013.87 1013.92 1014.06 1014.49
1005.20 1006.06 1007.27 1007.94 1008.11 1008.80 1009.51 1010.01 1010.48 1010.82 1011.07 1011.13 1011.53 1011.78 1012.09 1012.16 1012.28 1012.48 1012.59 1012.64 1012.72 1012.63 1012.62 1012.59 1012.54 1012.40 1012.33 1012.24 1012.20 1012.21 1012.33 1012.67 1013.06 1013.28 1013.45 1013.82 1013.97 1013.85 1013.66 1013.50 1013.59 1013.83 1014.38
1004.65 1005.48 1006.61 1007.51 1007.90 1008.53 1009.14 1009.86 1010.28 1010.65 1010.67 1010.97 1011.16 1011.47 1011.88 1011.95 1012.07 1012.23 1012.33 1012.35 1012.35 1012.50 1012.54 1012.48 1012.36 1012.37 1012.18 1012.23 1012.21 1012.19 1012.40 1012.65 1012.86 1013.12 1013.09 1013.04 1013.47 1013.38 1013.30 1013.25 1013.28 1013.57 1014.03
1003.88 1005.01 1005.77 1007.18 1007.87 1008.29 1008.93 1009.64 1010.04 1010.23 1010.56 1010.80 1010.98 1011.39 1011.50 1011.71 1011.79 1012.00 1011.99 1011.95 1011.90 1012.32 1012.50 1012.31 1012.23 1012.23 1012.16 1012.08 1012.01 1012.06 1012.16 1012.41 1012.55 1012.78 1012.82 1012.63 1012.68 1013.00 1012.93 1012.88 1012.95 1013.24 1013.70
1003.87 1004.84 1005.67 1006.35 1007.60 1008.04 1008.67 1009.37 1009.67 1009.98 1010.35 1010.64 1010.83 1010.93 1010.94 1011.14 1011.36 1011.46 1011.43 1011.33 1011.39 1011.75 1011.88 1011.95 1011.96 1011.93 1011.81 1011.81 1011.98 1012.06 1012.15 1012.24 1012.32 1012.42 1012.45 1012.50 1012.28 1012.25 1012.23 1012.59 1012.73 1013.07 1013.42
1003.31 1004.09 1005.01 1006.17 1007.31 1007.80 1008.46 1009.00 1009.48 1009.91 1010.23 1010.37 1010.46 1010.35 1010.42 1010.66 1010.85 1010.92 1010.91 1010.96 1011.22 1011.37 1011.64 1011.72 1011.75 1011.69 1011.62 1011.72 1011.77 1011.88 1012.06 1012.12 1012.20 1012.06 1012.25 1012.24 1012.21 1012.27 1012.15 1012.48 1012.56 1013.43 1013.61
1002.96 1003.59 1004.34 1005.31 1006.45 1007.59 1008.22 1008.91 1009.35 1009.70 1009.94 1009.98 1009.96 1009.80 1009.99 1010.12 1010.31 1010.39 1010.76 1010.90 1011.09 1011.19 1011.32 1011.55 1011.50 1011.50 1011.45 1011.39 1011.57 1011.76 1011.93 1012.01 1012.11 1012.25 1012.11 1012.33 1012.50 1012.43 1012.20 1011.98 1012.87 1013.60 1012.42
1003.18 1003.68 1004.29 1005.55 1006.67 1007.20 1007.73 1008.39 1008.90 1009.10 1009.38 1009.55 1009.58 1009.50 1009.57 1009.64 1009.70 1010.16 1010.44 1010.71 1010.98 1011.02 1011.00 1011.14 1011.14 1011.13 1011.21 1011.35 1011.55 1011.96 1012.07 1012.08 1012.08 1012.20 1012.14 1012.28 1012.53 1012.53 1012.33 1011.93 1013.25 1013.90 1013.97
1003.44 1004.20 1004.94 1005.62 1006.54 1007.19 1007.50 1008.21 1008.51 1008.82 1009.10 1009.25 1009.29 1009.24 1009.19 1009.20 1009.40 1009.82 1010.08 1010.48 1010.61 1010.68 1010.76 1010.81 1010.92 1010.92 1011.06 1011.13 1011.01 1011.19 1011.39 1011.78 1011.90 1012.11 1012.18 1012.35 1012.62 1012.53 1012.53 1012.37 1012.72 1013.31 1014.09
1003.94 1004.55 1005.06 1005.79 1006.53 1007.07 1007.67 1008.25 1008.61 1008.94 1009.07 1008.95 1008.90 1008.91 1009.04 1009.06 1009.19 1009.57 1009.80 1010.04 1010.18 1010.24 1010.20 1010.47 1010.67 1010.65 1010.63 1011.02 1010.93 1010.70 1010.55 1010.41 1011.51 1011.90 1012.00 1012.27 1012.74 1012.85 1012.75 1012.77 1012.85 1013.31 1013.93
1004.08 1004.64 1005.33 1005.90 1006.45 1007.21 1007.81 1007.99 1008.24 1008.48 1008.51 1008.70 1008.79 1008.99 1009.02 1009.04 1008.98 1009.28 1009.38 1009.67 1009.81 1009.86 1010.06 1010.23 1010.45 1010.37 1010.55 1010.55 1010.97 1010.59 1010.31 1010.27 1010.66 1011.64 1012.24 1012.52 1012.86 1013.10 1013.05 1013.19 1013.47 1013.93 1014.50
1004.14 1004.82 1005.44 1006.00 1006.59 1007.27 1007.70 1007.84 1008.10 1008.39 1008.58 1008.67 1008.82 1008.88 1008.91 1008.88 1008.97 1009.15 1009.25 1009.42 1009.58 1009.76 1009.97 1010.12 1010.30 1010.39 1010.28 1010.33 1010.30 1010.37 1010.42 1010.51 1010.53 1010.90 1012.00 1012.68 1013.04 1013.25 1013.48 1013.65 1013.92 1014.45 1014.92
1004.41 1005.07 1005.58 1006.06 1006.67 1007.22 1007.60 1007.91 1008.03 1008.24 1008.43 1008.50 1008.58 1008.60 1008.64 1008.79 1008.94 1008.98 1009.08 1009.18 1009.45 1009.60 1009.77 1009.89 1010.07 1010.25 1010.16 1010.22 1010.26 1010.40 1010.31 1010.45 1010.82 1010.84 1011.56 1012.56 1012.98 1013.48 1013.74 1014.16 1014.41 1014.55 1015.19
Wind_Speed
12 15 20 19 18 17 17 17 15 14 13 12 11 10 9 7 6 6 5 4 2 1 2 2 2 2 4 3 1 1 1 4 4 5 6 4 6 8 9 10 12 12 14
17 17 22 20 19 19 18 16 15 14 13 13 12 10 9 7 6 5 3 3 3 3 3 3 3 4 4 6 3 3 2 3 4 5 6 6 8 9 12 12 13 11 15
19 17 22 22 21 20 19 16 15 15 14 14 12 11 10 9 8 7 7 7 7 7 6 5 5 5 5 8 6 6 4 3 4 4 6 5 6 12 13 14 15 13 15
18 16 21 23 22 21 19 17 17 16 15 14 13 13 12 12 11 12 12 11 10 10 10 9 8 8 6 8 8 8 7 5 4 4 5 5 5 7 13 15 15 16 16
17 17 19 24 22 21 20 19 18 17 16 15 15 14 13 13 12 12 13 13 12 12 13 13 11 11 10 9 9 9 9 8 6 7 5 5 5 5 10 14 15 15 15
17 17 19 24 23 21 20 19 19 18 17 16 16 15 14 14 13 13 14 14 14 14 14 16 13 12 11 11 11 10 10 9 8 7 5 5 7 4 8 14 15 15 16
16 16 17 22 22 21 20 19 18 17 16 16 16 15 15 15 13 13 14 15 15 16 16 16 14 13 12 11 12 10 11 10 10 6 6 6 6 5 11 11 15 14 15
16 17 15 21 22 21 20 19 17 16 16 16 14 14 13 13 12 12 13 12 14 15 15 15 15 12 13 11 12 12 10 11 10 8 7 6 5 9 11 12 11 14 17
13 15 14 17 19 20 19 18 17 16 15 14 13 13 12 11 10 9 10 10 12 14 15 15 15 15 13 12 11 11 11 11 10 6 8 6 6 9 11 12 12 16 19
12 14 15 15 16 16 15 16 16 15 14 13 13 13 11 10 9 9 8 10 11 12 14 16 17 16 14 13 13 12 12 13 11 8 8 6 8 10 11 12 13 15 20
12 14 14 15 15 15 13 13 14 15 14 12 13 12 9 7 7 8 8 10 12 13 13 15 15 15 15 16 15 15 14 8 9 7 6 7 11 12 12 13 14 14 19
17 17 15 14 13 12 9 10 11 10 9 9 8 9 7 7 7 7 9 11 12 13 13 15 14 12 10 9 8 13 9 10 8 6 6 7 11 13 13 13 13 14 17
18 13 15 13 12 13 10 8 5 5 5 5 8 7 7 6 6 6 5 5 6 7 7 7 8 7 9 7 8 7 8 9 7 5 8 9 12 13 13 14 13 14 17
18 15 14 15 13 12 7 7 7 6 5 5 6 8 6 6 7 7 6 6 6 5 6 6 5 6 8 8 9 9 10 9 6 5 7 10 12 12 12 14 12 15 15
19 15 14 14 13 12 10 7 6 6 6 6 6 7 7 7 7 7 7 7 6 6 5 5 5 6 6 7 8 9 10 10 8 5 5 10 12 12 12 13 13 16 17
16 15 14 15 13 12 10 9 6 6 5 5 5 6 8 7 7 7 7 7 7 6 5 6 5 5 6 6 8 8 9 8 7 8 6 7 11 12 12 13 13 18 22
15 14 16 14 14 13 12 9 6 5 5 5 6 8 9 9 9 9 8 8 8 6 7 5 5 5 5 5 7 6 6 7 6 7 7 6 6 11 12 11 13 20 27
12 16 15 14 15 14 11 8 6 5 4 5 7 7 9 10 10 9 8 7 6 6 5 5 5 5 6 6 5 5 5 5 6 6 6 6 6 5 6 10 14 23 28
16 17 17 16 16 15 11 7 5 5 5 6 6 7 8 9 10 8 6 6 6 6 5 5 5 6 5 5 5 4 4 4 5 4 7 6 5 5 4 6 13 21 24
16 16 18 16 17 14 9 5 4 3 6 6 6 6 8 7 9 7 4 5 6 6 5 5 6 5 5 5 5 4 3 3 4 3 5 2 2 3 4 5 8 5 14
14 16 17 17 14 11 8 6 4 4 5 5 5 6 7 7 8 6 5 6 6 6 6 6 6 7 5 5 5 3 2 2 3 1 2 1 2 1 2 4 9 5 8
13 14 17 16 14 10 7 4 2 3 3 3 3 4 4 5 5 6 6 5 7 5 7 7 8 5 4 6 4 5 4 4 4 3 4 3 4 4 4 6 10 10 9
12 16 16 15 13 9 7 5 3 2 3 3 1 0 1 3 5 5 7 6 7 6 6 7 8 9 6 4 4 2 5 4 5 1 4 5 4 3 4 5 11 10 9
14 15 14 13 12 9 8 5 4 2 2 0 1 1 1 1 2 5 7 7 6 4 4 6 7 7 6 7 4 2 1 4 4 4 3 4 4 4 5 5 8 9 9
15 14 13 12 11 10 8 5 4 3 1 0 1 2 2 1 3 5 6 6 5 4 6 7 8 8 6 6 4 3 4 3 3 3 4 3 3 4 5 6 7 8 9
14 13 12 12 10 9 7 6 4 2 3 2 1 1 2 0 3 5 5 5 4 5 6 7 8 8 6 4 5 4 3 3 3 3 5 3 4 2 6 6 6 7 8
Wind_Direction
200 167 172 170 172 176 178 179 177 174 173 172 170 166 162 163 167 170 169 168 177 187 215 228 259 267 279 266 282 332 335 325 342 353 350 316 235 207 192 185 176 170 153
163 171 171 174 176 183 184 183 181 181 182 182 181 180 180 185 196 209 227 238 245 253 258 260 251 256 268 274 240 243 250 289 315 329 331 301 231 207 202 192 188 167 167
163 167 173 178 182 187 187 185 184 188 188 188 190 192 196 203 211 222 232 246 262 267 265 263 262 259 244 264 263 258 252 257 280 303 312 290 251 209 207 198 191 176 169
165 168 179 184 186 188 188 188 189 192 194 194 199 203 211 218 221 224 224 231 240 258 264 255 252 253 247 249 259 254 260 266 266 288 262 296 258 213 213 206 196 187 174
171 174 182 183 188 190 192 190 192 194 197 198 206 213 218 227 233 237 236 239 242 245 256 252 254 258 241 240 246 249 251 254 265 256 248 272 267 220 225 213 208 199 180
178 180 183 185 188 192 195 195 194 195 199 203 212 219 225 232 237 241 247 253 251 249 248 254 246 257 262 249 238 239 240 245 256 250 243 237 268 247 245 221 219 204 191
180 186 188 190 189 192 197 199 198 199 203 208 214 222 230 239 241 248 251 258 259 258 257 253 250 250 255 260 254 240 234 234 250 245 248 243 256 263 249 234 221 201 182
182 186 191 193 191 192 196 199 199 202 208 212 217 226 233 244 244 250 259 267 268 267 268 263 255 263 261 261 258 248 240 229 236 238 243 245 250 261 255 238 222 195 185
190 188 189 195 197 195 196 197 197 203 211 215 220 230 237 243 249 254 263 272 278 278 273 267 262 261 257 257 250 245 241 229 250 237 238 239 221 262 255 242 224 193 186
197 198 195 196 196 200 202 200 196 202 209 215 220 233 233 239 242 247 261 263 280 278 275 268 261 264 265 259 253 247 239 235 238 230 235 238 244 257 259 246 228 200 192
209 205 200 198 197 197 200 202 201 208 213 216 225 228 223 238 246 254 266 274 271 271 269 265 264 264 265 260 248 234 234 233 231 231 239 230 248 256 262 252 232 210 194
214 205 200 200 201 197 193 200 203 214 221 221 222 223 227 235 239 246 259 262 270 269 263 265 269 285 272 250 228 224 228 226 224 230 240 236 247 254 262 260 237 218 195
219 216 200 191 189 197 193 191 199 208 210 215 221 221 225 237 238 238 257 261 264 258 264 260 266 261 267 268 234 232 222 223 224 230 239 238 247 252 260 264 241 216 201
219 218 200 189 184 188 192 184 193 204 207 217 219 222 227 233 235 241 248 249 246 253 257 259 258 259 268 258 242 229 224 216 217 233 242 249 252 255 260 265 245 217 194
224 209 196 189 181 175 179 185 195 204 212 218 222 228 231 241 240 242 247 246 244 247 247 252 255 260 254 246 231 225 215 216 223 239 242 245 256 253 259 262 244 208 187
221 199 180 190 177 169 177 184 192 206 209 218 231 235 226 238 240 250 245 239 242 237 242 245 248 253 246 236 223 214 213 216 229 241 236 247 250 255 259 253 238 199 186
216 184 172 178 178 173 177 186 194 201 213 223 236 235 231 231 236 241 239 237 237 216 227 236 238 237 239 229 227 206 210 219 233 237 243 257 244 233 257 244 222 192 174
186 178 165 174 178 172 173 183 191 198 219 239 243 244 237 234 233 233 236 238 233 213 225 232 232 227 229 222 212 206 207 222 236 239 247 255 237 252 226 241 212 188 176
177 169 169 167 175 172 170 172 184 202 231 241 245 243 242 235 229 231 235 238 214 206 215 226 222 234 221 214 206 199 211 235 246 242 245 231 233 245 230 220 209 187 178
175 167 162 165 164 166 155 158 177 218 244 242 242 241 238 228 220 221 211 222 212 211 206 213 223 209 221 213 198 193 210 223 228 234 229 192 226 263 210 225 142 154 166
172 170 164 151 158 155 152 165 194 223 230 232 237 250 241 228 215 206 208 212 211 210 212 212 215 211 205 193 162 135 175 183 237 185 163 164 112 137 203 172 141 173 198
169 161 155 152 155 163 152 156 170 203 228 271 271 269 247 222 217 208 207 191 201 198 203 205 209 196 199 191 190 159 168 147 107 119 143 133 119 142 175 179 168 159 156
157 155 149 152 154 155 148 145 146 200 226 235 231 330 32 228 216 205 200 197 196 205 204 197 206 198 179 193 222 192 175 157 146 150 139 125 135 150 147 167 150 148 138
156 150 145 146 148 153 161 156 178 204 252 228 300 313 253 256 201 199 202 190 201 199 203 194 194 203 192 179 204 211 199 136 161 153 128 111 124 134 147 148 140 138 137
149 148 145 145 149 151 154 166 166 192 205 156 231 258 239 240 158 168 175 185 199 195 192 196 187 204 207 196 194 165 144 135 116 145 122 132 97 135 122 128 137 135 137
149 146 145 149 151 153 161 159 172 175 157 199 220 264 250 189 179 166 166 178 167 186 193 192 191 205 214 224 203 188 130 141 152 168 135 126 124 95 134 124 134 143 133